Terminal Aerodrome Forecast
Issued by NWS North Platte, NE

Home | Current Version | Previous Version | Text Only | Print | Product List | Glossary On
Versions: 1 2 3 4 5 6 7 8 9 10 11 12 13
450
FTUS43 KLBF 262327
TAFVTN
TAF
KVTN 262327Z 2700/2724 10008KT P6SM BKN200
     FM270600 15008KT P6SM SCT200
     FM270800 15007KT P6SM FEW250 WS020/18040KT
     FM271100 17011KT P6SM FEW200 WS020/19040KT
     FM271300 17014G22KT P6SM SCT200
     FM271600 18023G31KT P6SM SCT200=

USA.gov is the U.S. government's official web portal to all federal, state and local government web resources and services.